Terminal Aerodrome Forecast
Issued by NWS

Home | Current Version | Previous Version | Text Only | Print | Product List | Glossary On
Versions: 1 2 3 4 5 6 7 8 9 10 11 12 13 14 15
000
FTUS46 KMTR 300800 AAA
TAFSTS
TAF AMD
KSTS 300814Z 3008/0106 14004KT P6SM SKC
     FM301100 VRB03KT 1 1/2SM BR OVC004
     FM301600 VRB03KT P6SM SKC
     FM302300 27008KT P6SM SKC=

USA.gov is the U.S. government's official web portal to all federal, state and local government web resources and services.